Location: Geroldsau
(48.7259°N, 8.2466°E)
Time: 15:18:32
(UTC+00:00)

SL-4 R/B - Pass Details

Date: 20 June 2021
Orbit: 428 x 662 km, 51.6° (Epoch: 04 August)

Event Time Altitude Azimuth Distance (km) Brightness Sun altitude
Rises 01:20:13 0° 282° (WNW) 2,593 5.3 -13.6°
Reaches altitude 10° 01:22:31 10° 287° (WNW) 1,670 4.4 -13.5°
Maximum altitude 01:26:11 54° 5° (N) 569 2.4 -13.2°
Drops below altitude 10° 01:29:39 10° 85° (E) 1,570 4.8 -12.9°
Sets 01:31:45 0° 90° (E) 2,418 5.7 -12.8°
